Regional Weather Roundup
Issued by NWS Cleveland, OH

Home | Current Version | Previous Version | Text Only | Print | Product List | Glossary On
Versions: 1 2 3 4 5 6 7 8 9 10 11 12 13 14 15 16 17 18 19 20 21 22 23 24 25 26 27 28 29 30 31 32 33 34 35 36 37 38 39 40 41 42 43 44 45 46 47 48 49 50
000
ASUS41 KCLE 012010
RWRCLE
OHIO REGIONAL WEATHER ROUNDUP
NATIONAL WEATHER SERVICE CLEVELAND, OH
400 PM EDT WED OCT 01 2014

NOTE: "FAIR" INDICATES FEW OR NO CLOUDS BELOW 12,000 FEET WITH NO
SIGNIFICANT WEATHER AND/OR OBSTRUCTIONS TO VISIBILITY.

OHZ001>008-015>018-024>027-034-035-043-044-012100-
   NORTHWEST OHIO

CITY           SKY/WX    TMP DP  RH WIND       PRES   REMARKS
DEFIANCE       SUNNY     66  49  54 VRB3      30.02F
FINDLAY        MOSUNNY   68  49  50 E3        30.01F
TOLEDO EXPRESS PTSUNNY   66  50  56 VRB3      30.02F
TOLEDO EXEC    MOSUNNY   67  52  58 CALM      30.03F
LIMA           SUNNY     70  50  49 E7        30.01F
$$

OHZ009>014-019>023-028>033-038-089-012100-
   NORTHEAST OHIO

CITY           SKY/WX    TMP DP  RH WIND       PRES   REMARKS
CLE-HOPKINS    PTSUNNY   65  58  78 N9        30.04S
CLE-LAKEFRONT  MOSUNNY   67  61  81 NW7       30.01F
CUY CO. ARPT   PTSUNNY   68  63  83 N9        30.02F
LORAIN-ELYRIA  MOSUNNY   70  58  65 N8        30.03F
ASHTABULA      SUNNY     70  59  68 N6        30.02F
AKRON-CANTON   PTSUNNY   66  55  67 CALM      30.03S
WOOSTER        CLOUDY    65  56  72 S3        30.03F
MANSFIELD      MOSUNNY   68  54  60 SE7       30.03S
YOUNGSTOWN     MOSUNNY   67  57  70 VRB7      30.03S
$$

OHZ042-051>053-060>062-070>072-077>081-012100-
  SOUTHWEST OHIO

CITY           SKY/WX    TMP DP  RH WIND       PRES   REMARKS
CINC-COVINGTON MOSUNNY   75  54  47 CALM      29.99F
CINC-LUNKEN    SUNNY     75  54  47 E7        29.99F
HAMILTON       SUNNY     71  53  52 E3        30.01F
DAYTON         SUNNY     67  52  58 SE5       30.03F
WRIGHT-PAT AFB SUNNY     66  52  60 E2        30.02F
DAYTON GENERAL SUNNY     65  52  62 CALM      30.01F
WILMINGTON     SUNNY     67  48  50 NE3       30.01F
$$

OHZ036-037-039>041-045>050-054>059-063>069-073>076-082>088-012100-
  CENTRAL AND SOUTHEAST OHIO

CITY           SKY/WX    TMP DP  RH WIND       PRES   REMARKS
COLUMBUS       MOSUNNY   69  49  48 CALM      30.01F
OSU AIRPORT    SUNNY     68  49  50 CALM      30.01F
BOLTON FIELD   SUNNY     68  52  56 CALM      30.02F
RICKENBACK AFB SUNNY     68  49  50 CALM      30.01S
NEWARK         PTSUNNY   65  51  60 VRB5      30.03S
MARION         MOSUNNY   68  49  50 CALM      30.02F
LANCASTER      SUNNY     72  49  44 VRB5      30.01F
ZANESVILLE     PTSUNNY   69  51  52 MISG      30.02S
NEW PHILLY     MOSUNNY   68  56  65 CALM      30.03S
$$



USA.gov is the U.S. government's official web portal to all federal, state and local government web resources and services.